Regional Weather Roundup
Issued by NWS

Home | Current Version | Previous Version | Graphics & Text | Print | Product List | Glossary On
Versions: 1 2 3 4 5 6 7 8 9 10 11 12 13 14 15 16 17 18 19 20 21 22 23 24 25 26 27 28 29 30 31 32 33 34 35 36 37 38 39 40 41 42 43 44 45 46 47 48 49 50
000
ASUS43 KDMX 241501
RWRIA

WEATHER ROUNDUP FOR IOWA
NATIONAL WEATHER SERVICE DES MOINES IA
1000 AM CDT THU MAY 24 2018

NOTE: "FAIR" INDICATES FEW OR NO CLOUDS BELOW 12,000 FEET WITH NO
SIGNIFICANT WEATHER AND/OR OBSTRUCTIONS TO VISIBILITY.

* - THESE STATIONS ARE NOT NWS STATIONS...THUS NOT UNDER NWS
QUALITY CONTROL.  THEY ALSO DO NOT REPORT WEATHER SUCH
AS PRECIPITATION OR FOG.

IAZ001>003-012>014-020>022-031>034-043>046-241600-
   NORTHWEST IOWA

CITY           SKY/WX    TMP DP  RH WIND       PRES   REMARKS
CARROLL *      PTSUNNY   81  64  57 S15       30.05F HX  82
CHEROKEE *     CLOUDY    75  68  78 S10       30.04S
DENISON *      CLOUDY    75  66  73 S12       30.06F
LE MARS *      MOSUNNY   75  66  73 S15       30.00F
ORANGE CITY *  CLOUDY    75  66  73 S12       30.01F
SHELDON *      CLOUDY    75  68  78 S17       30.00F
SIOUX CITY     CLOUDY    76  66  71 S12       30.01F
SPENCER        CLOUDY    78  66  66 S13       30.03F HX  80
STORM LAKE *   CLOUDY    75  66  73 SW14G21   30.05S
$$

IAZ055>058-069>071-079>083-090>094-241600-
   SOUTHWEST IOWA

CITY           SKY/WX    TMP DP  RH WIND       PRES   REMARKS
ATLANTIC *     CLOUDY    77  68  73 SW10      30.07S
AUDUBON *      CLOUDY    77  68  73 S12       30.08F
CLARINDA *     CLOUDY    79  68  69 S8G16     30.09S HX  81
COUNCIL BLFS * CLOUDY    75  75 100 S9        30.05F
CRESTON *      MOSUNNY   79  66  65 S13       30.10F HX  81
HARLAN  *      CLOUDY    75  66  73 S10       30.09F
LAMONI         SUNNY     76  67  73 VRB6      30.11S
RED OAK *      CLOUDY    79  66  65 SW12      30.07S HX  81
SHENANDOAH *   CLOUDY    79  66  65 S9        30.07S HX  81
$$

IAZ047>049-059>061-072>074-084-241600-
   CENTRAL IOWA

CITY           SKY/WX    TMP DP  RH WIND       PRES   REMARKS
AMES           SUNNY     78  66  66 S13       30.08S HX  80
ANKENY *       SUNNY     79  66  65 S10       30.10S HX  81
BOONE *        SUNNY     79  66  65 SW12      30.08S HX  81
CHARITON *     SUNNY     79  63  57 S12       30.10F HX  80
DES MOINES     PTSUNNY   80  66  62 S8        30.08S HX  82
GRINNELL*      SUNNY     78  65  65 S9        30.12F
KNOXVILLE *    SUNNY     79  64  61 S12       30.09F HX  81
MARSHALLTOWN   SUNNY     79  67  66 MISG      30.09F HX  81
NEWTON *       SUNNY     79  64  61 S12       30.10F HX  81
PELLA *        SUNNY     79  65  61 S8        30.12S HX  81
PERRY *        FAIR      82  64  53 S14       30.08S HX  83
$$

IAZ004>006-015-016-023>025-035-036-241600-
   NORTH CENTRAL IOWA

CITY           SKY/WX    TMP DP  RH WIND       PRES   REMARKS
ALGONA *       MOSUNNY   79  68  69 S13G20    30.05F HX  81
CLARION *      MOSUNNY   77  66  69 S13       30.08S
ESTHERVILLE    PTSUNNY   74  67  78 S16       30.03F
FORT DODGE *   CLOUDY    79  67  66 SW10      30.07  HX  81
MASON CITY     PTSUNNY   77  68  73 S13       30.09F
FOREST CITY *  FAIR      77  68  73 S12       30.08S
IOWA FALLS *   FAIR      78  67  67 S12       30.10F HX  80
$$

IAZ007>011-017>019-026>030-037>042-050>054-066-241600-
   NORTHEAST IOWA

CITY           SKY/WX    TMP DP  RH WIND       PRES   REMARKS
CEDAR RAPIDS   FAIR      79  63  57 S8        30.12F HX  80
CLINTON *      FAIR      78  62  57 S8        30.16S HX  80
DECORAH *      FAIR      75  64  69 S9        30.11S
DUBUQUE        FAIR      75  60  59 S8        30.15F
MONTICELLO *   FAIR      79  63  57 SE8       30.13F HX  80
OELWEIN *      FAIR      77  63  61 S15       30.13S
WATERLOO       FAIR      78  65  63 S14       30.09F HX  80
$$

IAZ064-065-067-068-078-241600-
   EAST CENTRAL IOWA

CITY           SKY/WX    TMP DP  RH WIND       PRES   REMARKS
DAVENPORT      FAIR      78  60  53 S9        30.16F
IOWA CITY      FAIR      80  64  58 SE9       30.13F HX  82
MUSCATINE *    FAIR      79  63  57 S7        30.14S HX  80
QUAD CITIES    FAIR      81  62  52 S7        30.13F HX  82
$$

IAZ062-063-075>077-085>089-095>099-241600-
   SOUTHEAST IOWA

CITY           SKY/WX    TMP DP  RH WIND       PRES   REMARKS
BURLINGTON     MOSUNNY   79  65  62 S7        30.14F HX  81
FAIRFIELD *    SUNNY     79  66  65 S9        30.12F HX  81
FORT MADISON * SUNNY     82  66  57 S5        30.14F HX  85
KEOKUK *       SUNNY     82  66  57 VRB7      30.13F HX  85
OSKALOOSA *    FAIR      80  62  55 S8        30.12F HX  81
OTTUMWA        SUNNY     79  66  64 S8        30.12S HX  81
WASHINGTON *   MOSUNNY   82  66  57 S12       30.13F HX  85
$$

ABBREVIATIONS USED IN REMARKS
   TC - TEMPERATURES IN CELSIUS
  WCI - WIND CHILL INDEX
   HX - HEAT INDEX
  VSB - VISIBILITY
$$




USA.gov is the U.S. government's official web portal to all federal, state and local government web resources and services.